Regional Weather Roundup
Issued by NWS

Home | Current Version | Previous Version | Text Only | Print | Product List | Glossary On
Versions: 1 2 3 4 5 6 7 8 9 10 11 12 13 14 15 16 17 18 19 20 21 22 23 24 25 26 27 28 29 30 31 32 33 34 35 36 37 38 39 40 41 42 43 44 45 46 47 48 49 50
000
ASUS44 KEWX 280710
RWRTX
SOUTH TEXAS REGIONAL WEATHER ROUNDUP
NATIONAL WEATHER SERVICE AUSTIN/SAN ANTONIO TX
100 AM CST FRI NOV 28 2014

NOTE: "FAIR" INDICATED FEW OR NO CLOUDS BELOW 12,000 FEET WITH NO
SIGNIFICANT WEATHER AND/OR OBSTRUCTIONS TO VISIBILITY.

* - THESE STATIONS ARE NOT NWS OR FAA STATIONS...AND ARE NOT SUBJECT
    TO NWS AND FAA QUALITY CONTROL.

TXZ171-172-183>190-280800-
TEXAS HILL COUNTRY AND EDWARDS PLATEAU

CITY           SKY/WX    TMP DP  RH WIND       PRES   REMARKS
JUNCTION       CLEAR     47  32  56 CALM      30.33F
*LLANO         CLEAR     39  34  81 CALM      30.37F
BURNET         CLEAR     42  33  70 CALM      30.36F
*HORSESHOE BAY CLEAR     40  34  79 S3        30.35F
*KERRVILLE     CLEAR     36  33  88 CALM      30.36F
*FREDERICKSBRG CLEAR     35  32  88 CALM      30.34F
*ROCKSPRINGS   CLEAR     46  34  61 MISG      30.36F
*BOERNE STAGE  CLEAR     41  36  81 S7        30.37F WCI  36
*CASTROVILLE   CLEAR     40  33  76 NW3       30.39S
HONDO          CLEAR     40  31  70 N7        30.39F WCI  35
*UVALDE        CLEAR     45  37  72 NE6       30.37F WCI  42
DEL RIO        CLEAR     47  38  71 SE5       30.34F WCI  45
LAUGHLIN AFB   CLEAR     46  38  75 SE5       30.34F WCI  44
CARRIZO SPRGS  CLEAR     43  39  87 CALM      30.35S
$$

TXZ173-191>194-202-209-217>225-228-280800-
CENTRAL AND SOUTH CENTRAL TEXAS

CITY           SKY/WX    TMP DP  RH WIND       PRES   REMARKS
GEORGETOWN     CLEAR     39  32  75 CALM      30.36F
AUSTIN/BERGSTM CLEAR     35  33  92 CALM      30.37F
AUSTIN/MABRY   CLEAR     44  36  73 CALM      30.37F
*AUSTIN/EXEC   CLEAR     45  32  61 S3        30.37F
*LAGO VISTA    CLEAR     51  32  47 S6        30.35F
SAN MARCOS     CLEAR     39  34  81 CALM      30.38F
NEW BRAUNFELS  CLEAR     41  36  82 W3        30.36F
RANDOLPH AFB   CLEAR     41  36  82 NW1       30.37F HAZE
PT SAN ANTONIO CLEAR     42  37  83 N2        30.35F
SAN ANTONIO    CLEAR     43  37  79 NW5       30.37F WCI  40
STINSON FIELD  CLEAR     43  38  82 CALM      30.36F
*PLEASANTON    CLEAR     42  39  87 CALM      30.37F
*LA GRANGE     CLEAR     44  40  87 CALM      30.36F
*GIDDINGS      CLEAR     43  36  75 CALM      30.41F
*GONZALES      CLEAR     46  37  73 SE3       30.37F
$$

TXZ163>164-176>182-195>201-210>213-226-227-235-280800-
SOUTHEAST TEXAS

CITY           SKY/WX    TMP DP  RH WIND       PRES   REMARKS
COLLEGE STN    CLEAR     47  34  60 S6        30.38F WCI  44
*BRYAN         CLEAR     44  35  70 SE5       30.38F WCI  41
*CALDWELL      CLEAR     39  34  81 CALM      30.40F
*CROCKETT      CLEAR     43  37  81 CALM      30.42S
*BRENHAM       CLEAR     47  36  67 CALM      30.39F HAZE
HUNTSVILLE     CLEAR     50  33  52 SE3       30.38F
CONROE         CLEAR     38  35  89 CALM      30.40F
HOUSTON BUSH   CLEAR     43  40  89 CALM      30.39F
HOUSTON HOBBY  CLEAR     45  41  86 CALM      30.39F
*HOUSTON SW AP CLEAR     38  38 100 CALM      30.40F
PEARLAND       CLEAR     43  40  89 E8        30.40F WCI  38
HOUSTON HOOKS  CLEAR     39  38  96 CALM      30.39F
ELLINGTON FLD  CLEAR     48  37  66 CALM      30.40F
SUGAR LAND     CLEAR     43  40  89 CALM      30.38F
*HOUSTON EXEC  MOCLDY    43  37  81 CALM      30.40F
*CLEVELAND MUN CLEAR     37  37 100 CALM      30.41F
*WHARTON       CLEAR     43  39  87 CALM      30.39F
*COLUMBUS      FAIR      44  38  78 S3        30.38F
$$

TXZ214>216-236>238-280800-
THE UPPER TEXAS COAST

CITY           SKY/WX    TMP DP  RH WIND       PRES   REMARKS
*ORANGE        CLEAR     42  39  86 E3        30.42F
PORT ARTHUR    CLEAR     44  39  82 CALM      30.40F
GALVESTON      CLEAR     55  45  68 SE7       30.40F
ANGLETON       CLEAR     40  39  97 CALM      30.39F
*BAY CITY        N/A     46  44  92 CALM      30.38F
PALACIOS       CLEAR     47  45  93 NE7       30.38F WCI  44
$$

TXZ229>234-239>247-280800-
TEXAS COASTAL BEND AND RIO GRANDE PLAINS

CITY           SKY/WX    TMP DP  RH WIND       PRES   REMARKS
VICTORIA       CLEAR     48  44  86 E6        30.38F WCI  45
*BEEVILLE      CLEAR     49  48  98 NE6       30.36F WCI  46
ROCKPORT       CLEAR     58  55  90 E6        30.35F
*PORT ARANSAS  CLEAR     63  59  88 E5        30.35F
*PORT LAVACA   NOT AVBL
*INGLESIDE     CLEAR     56  54  92 E3        30.35F
CORPUS CHRISTI PTCLDY    58  55  90 E7        30.35F
CORPUS NAS     CLEAR     58  58 100 E6        30.35F
*ROBSTOWN      NOT AVBL
ALICE          CLEAR     50  48  93 N3        30.35F
KINGSVILLE NAS CLEAR     54  53  97 CALM      30.35F
COTULLA        CLEAR     51  46  83 SE5       30.36F
*FAITH RANCH   CLEAR     54  50  87 SE6       30.35F
LAREDO         CLEAR     55  55 100 E6        30.37F
$$

TXZ248>255-280800-
DEEP SOUTH TEXAS

CITY           SKY/WX    TMP DP  RH WIND       PRES   REMARKS
BROWNSVILLE    FOG       53  52  96 CALM      30.35F VSB 3/4
PORT ISABEL    CLEAR     54  53  97 CALM      30.35S FOG
*SOUTH PADRE   CLEAR    N/A N/A N/A CALM      30.35S
HARLINGEN      FOG       54  54 100 SE5       30.34F VSB 1/2
*HEBBRONVILLE  FOG       56  54  95 CALM      30.36F VSB 1/4
MCALLEN        CLEAR     55  54  96 SE3       30.36F FOG
*WESLACO       CLEAR     58  55  89 CALM      30.35F
FALFURRIAS       N/A     53  51  94 CALM      30.35F
EDINBURG       FOG       55  52  92 CALM      30.36S VSB 1
*ZAPATA        NOT AVBL
$$

TXZ213>215-236>238-242>244-246-247-251-254-255-280800-
CMAN STATIONS

STATION/POSITION TIME  TEMP    WIND        PRES    WAVE
                       AIR SEA DIR/SP/G            HT/PER
                 (UTC) (F)     (DEG/KT/KT) (MB)    (FT/S)
SABINE PASS      0700   49 58   70/  6/  7 1029.3
SEA RIM ST PARK  0700   47      50/  6/  6 1030.0
NORTH JETTY/GLS  0700   59 60  150/  7/  8   N/A
EAGLE POINT      0700   57 59  180/  3/  3 1029.0
MORGANS POINT    0700   55        CALM     1029.0
MISSION/ARANSAS  0600   60      70/  6     1030.0
PORT O`CONNOR    0700           90/  7/  7   N/A
PORT ARANSAS     0700   66 62  100/  9/  9 1028.0
MALAQUITE BEACH  0700   66 65   90/  7/  9 1027.1
BAFFIN BAY       0700   64 75  110/  5/  6 1027.5
PORT ISABEL      0700   62 64   10/  1/  1 1027.7
$$

GMZ080-GMZ150>470-280800-
OFFSHORE BUOY REPORTS

STATION/POSITION TIME  TEMP    WIND        PRES    WAVE
                       AIR SEA DIR/SP/G            HT/PER
                 (UTC) (F)     (DEG/KT/KT) (MB)    (FT/S)
20 E GALVESTON   0700   60 61  110/  8/ 10 1028.7    1/ 4
90 E PT ARANSAS  0700   67 72  110/ 10/ 14 1028.7    3/ 6
35 NE PT MANSFLD 0700   71 73  140/ 10/ 12 1027.3    3/ 6
200 E PT ISABEL  0700   69 74   70/  8/ 12 1028.0    3/ 6
$$


USA.gov is the U.S. government's official web portal to all federal, state and local government web resources and services.